Flag for France Weather past 2 weeks in Boulogne-Billancourt, France

Now
59 °F

Scattered clouds.


Feels Like: 57 °F
Forecast: 47 / 71 °F
Wind: 10 mph from Northwest

Location: Paris-Orly

Current Time: Aug 23, 2014 at 10:13:46 AM

Latest Report: Aug 23, 2014 at 9:30 AM


Visibility: N/A

Pressure: 30.01 "Hg

Humidity: 82%

Dew point: 54 °F

Location of Boulogne-BillancourtLocation

Historic Weather in Boulogne-Billancourt — Graph

°F

Boulogne-Billancourt temperature yesterday

Maximum temperature yesterday: 70 °F (at 2:00 PM)
Minimum temperature yesterday: 54 °F (at 5:30 AM)
Average temperature yesterday: 60 °F

Past Weeks' High & Low Weather Summary

 TemperatureHumidityPressure
High77 °F (Aug 10, 2:30 PM)100% (Aug 8, 9:00 AM)30.21 "Hg (Aug 8, 9:00 AM)
Low43 °F (Aug 21, 6:30 AM)35% (Aug 21, 5:00 PM)29.59 "Hg (Aug 10, 3:00 PM)
Average61 °F73%29.94 "Hg
* Reported Aug 8 9:00 AM — Aug 23 9:00 AM, Boulogne-Billancourt, Weather by CustomWeather, © 2014

Note: Actual official high and low records may vary slightly from our data, if they occured in-between our weather recording intervals... More about our weather records

Advertising

Boulogne-Billancourt weather history for previous 24 hours

 ConditionsComfort  
Time TempWeatherWind HumidityBarometerVisibility
9:00 AM
Aug 23
57 °FScattered clouds.8 mph88%30.01 "HgN/A
8:30 AM55 °FBroken clouds.6 mph94%30.01 "HgN/A
8:00 AM55 °FBroken clouds.7 mph94%29.98 "HgN/A
7:30 AM55 °FClear.7 mph94%29.98 "Hg10 mi
7:00 AM55 °FClear.6 mph94%29.98 "Hg10 mi
6:30 AM55 °FClear.5 mph94%29.98 "Hg10 mi
6:00 AM55 °FClear.5 mph94%29.98 "Hg10 mi
5:30 AM57 °FClear.6 mph88%29.98 "Hg10 mi
5:00 AM57 °FClear.6 mph88%29.98 "Hg10 mi
4:30 AM57 °FPassing clouds.7 mph88%29.98 "HgN/A
4:00 AM57 °FPassing clouds.6 mph88%29.98 "HgN/A
3:30 AM57 °FPassing clouds.6 mph88%29.98 "HgN/A
3:00 AM57 °FClear.5 mph88%29.98 "Hg10 mi
2:30 AM57 °FPassing clouds.3 mph94%29.98 "HgN/A
2:00 AM57 °FPartly cloudy.5 mph94%29.98 "HgN/A
1:30 AM57 °FPartly cloudy.3 mph94%29.98 "HgN/A
1:00 AM57 °FPartly cloudy.3 mph94%29.98 "HgN/A
12:30 AM57 °FPartly cloudy.5 mph94%29.98 "HgN/A
12:00 AM57 °FLight rain. Clear.5 mph94%29.98 "HgN/A
11:30 PM
Aug 22
57 °FLight rain. Partly cloudy.5 mph94%29.98 "HgN/A
11:00 PM57 °FLight rain. Partly cloudy.8 mph88%29.98 "Hg4 mi
10:30 PM57 °FPartly cloudy.5 mph88%29.98 "HgN/A
10:00 PM57 °FPartly cloudy.6 mph88%29.98 "HgN/A
9:30 PM57 °FBroken clouds.2 mph88%29.98 "HgN/A
9:00 PM57 °FSprinkles. Partly sunny.6 mph88%29.98 "HgN/A
8:30 PM61 °FSprinkles. Partly sunny.14 mph72%29.98 "HgN/A
8:00 PM61 °FBroken clouds.9 mph72%29.98 "HgN/A
7:30 PM63 °FBroken clouds.15 mph68%29.95 "HgN/A
7:00 PM66 °FBroken clouds.16 mph52%29.95 "HgN/A
6:30 PM66 °FBroken clouds.12 mph52%29.95 "HgN/A
6:00 PM66 °FBroken clouds.14 mph52%29.95 "HgN/A
5:30 PM68 °FPassing clouds.12 mph49%29.95 "HgN/A
5:00 PM68 °FSunny.13 mph53%29.95 "Hg10 mi
4:30 PM66 °FBroken clouds.10 mph56%29.95 "HgN/A
4:00 PM66 °FPassing clouds.13 mph52%29.95 "HgN/A
3:30 PM66 °FSunny.10 mph52%29.95 "Hg10 mi
3:00 PM68 °FSunny.15 mph46%29.95 "Hg10 mi
2:30 PM68 °FPassing clouds.16 mph49%29.95 "HgN/A
2:00 PM70 °FPassing clouds.14 mph43%29.95 "HgN/A
1:30 PM68 °FPassing clouds.14 mph43%29.95 "HgN/A
1:00 PM66 °FScattered clouds.12 mph49%29.98 "HgN/A
12:30 PM66 °FScattered clouds.13 mph46%29.98 "HgN/A
12:00 PM66 °FPassing clouds.12 mph49%29.98 "HgN/A
11:30 AM64 °FPassing clouds.12 mph56%29.98 "HgN/A
11:00 AM64 °FScattered clouds.13 mph56%29.98 "HgN/A
10:30 AM63 °FSunny.10 mph59%29.98 "Hg10 mi
10:00 AM59 °FPassing clouds.7 mph68%29.98 "HgN/A
Weather by CustomWeather, © 2014

See weather overviewHow to use our weather pages